| time (UTC) | temp C | wind direction | speed KPH | gust KPH | rain 1hr cm | rain 24hr cm | rain mn cm | humidity % | barometer mb |
| 20260906050425 | 8 | 328 | 3.2 | 4.8 | 0.03 | 0.28 | 0.15 | 90 | 1006.3 |
| 20260906044819 | 8 | 0 | 0.0 | 0.0 | 0.03 | 0.25 | 0.13 | 1006.1 | |
| 20260906044815 | 8 | 0 | 0.0 | 0.0 | 0.03 | 0.25 | 0.13 | 90 | 1006.1 |
| 20260906043206 | 8 | 0 | 0.0 | 0.0 | 0.03 | 0.25 | 0.13 | 92 | 1005.9 |
| 20260906041505 | 8 | 230 | 1.6 | 1.6 | 0.00 | 0.25 | 0.13 | 91 | 1005.8 |
| 20260906035525 | 8 | 276 | 1.6 | 3.2 | 0.00 | 0.25 | 0.10 | 90 | 1005.7 |
| 20260906033630 | 8 | 258 | 3.2 | 4.8 | 0.03 | 0.28 | 0.10 | 91 | 1005.1 |
| 20260906033625 | 8 | 258 | 3.2 | 4.8 | 0.03 | 0.28 | 0.10 | 91 | 1005.1 |
| 20260906031949 | 8 | 246 | 3.2 | 3.2 | 0.03 | 0.28 | 0.10 | 93 | 1005.0 |
| 20260906030050 | 8 | 0 | 0.0 | 0.0 | 0.03 | 0.25 | 0.08 | 93 | 1004.9 |
| 20260906024450 | 8 | 293 | 6.4 | 8.0 | 0.03 | 0.25 | 0.08 | 93 | 1004.6 |
| 20260906022805 | 8 | 0 | 3.2 | 3.2 | 0.03 | 0.25 | 0.08 | 93 | 1004.3 |
| 20260906021030 | 8 | 350 | 1.6 | 1.6 | 0.03 | 0.25 | 0.05 | 92 | 1004.2 |
| 20260906015100 | 8 | 0 | 0.0 | 1.6 | 0.03 | 0.25 | 0.05 | 93 | 1004.1 |
| 20260906013206 | 8 | 0 | 0.0 | 0.0 | 0.00 | 0.25 | 0.03 | 95 | 1003.9 |
| 20260906011445 | 8 | 310 | 3.2 | 3.2 | 0.00 | 0.25 | 0.03 | 95 | 1003.5 |
| 20260906005846 | 8 | 0 | 0.0 | 0.0 | 0.03 | 0.28 | 0.03 | 96 | 1003.4 |
| 20260906003904 | 8 | 296 | 1.6 | 3.2 | 0.03 | 0.28 | 0.03 | 95 | 1003.3 |
| 20260906002240 | 8 | 266 | 3.2 | 3.2 | 0.00 | 0.28 | 0.00 | 95 | 1003.3 |
| 20260906000315 | 8 | 0 | 0.0 | 0.0 | 0.00 | 0.25 | 0.00 | 95 | 1003.0 |
| 20260905234329 | 8 | 276 | 1.6 | 4.8 | 0.00 | 0.25 | 0.00 | 95 | 1002.6 |
| 20260905234326 | 8 | 276 | 1.6 | 4.8 | 0.00 | 0.25 | 0.00 | 95 | 1002.6 |
| 20260905232727 | 8 | 267 | 1.6 | 3.2 | 0.00 | 0.28 | 0.00 | 94 | 1002.5 |
| 20260905232724 | 8 | 267 | 1.6 | 3.2 | 0.00 | 0.28 | 0.00 | 94 | 1002.5 |
| 20260905232720 | 8 | 267 | 1.6 | 3.2 | 0.00 | 0.28 | 0.00 | 94 | 1002.5 |
| 20260905231125 | 8 | 343 | 1.6 | 1.6 | 0.00 | 0.28 | 0.00 | 95 | 1002.4 |
| 20260905225315 | 9 | 0 | 0.0 | 4.8 | 0.00 | 0.28 | 0.00 | 96 | 1002.3 |
| 20260905223555 | 8 | 346 | 1.6 | 1.6 | 0.00 | 0.28 | 0.00 | 97 | 1002.0 |
| 20260905221645 | 9 | 0 | 0.0 | 0.0 | 0.00 | 0.30 | 0.00 | 98 | 1001.8 |
| 20260905215940 | 9 | 104 | 1.6 | 1.6 | 0.00 | 0.30 | 0.00 | 99 | 1001.8 |
| 20260905214035 | 9 | 0 | 0.0 | 0.0 | 0.00 | 0.30 | 0.00 | 99 | 1001.8 |
| 20260905212255 | 9 | 0 | 0.0 | 1.6 | 0.00 | 0.33 | 0.00 | 99 | 1001.4 |
| 20260905210350 | 10 | 0 | 0.0 | 0.0 | 0.00 | 0.33 | 0.00 | 99 | 1001.3 |
| 20260905204455 | 10 | 0 | 0.0 | 0.0 | 0.00 | 0.36 | 0.33 | 99 | 1000.9 |
| 20260905202730 | 10 | 0 | 0.0 | 0.0 | 0.00 | 0.36 | 0.33 | 99 | 1000.7 |
| 20260905201120 | 10 | 0 | 0.0 | 0.0 | 0.00 | 0.36 | 0.33 | 98 | 1000.4 |
| 20260905195432 | 10 | 0 | 0.0 | 0.0 | 0.03 | 0.00 | 0.33 | 97 | 1000.3 |
| 20260905195430 | 10 | 0 | 0.0 | 0.0 | 0.00 | 0.36 | 0.33 | 97 | 1000.3 |
| 20260905193745 | 10 | 0 | 0.0 | 0.0 | 0.00 | 0.38 | 0.33 | 97 | 1000.2 |
| 20260905192145 | 10 | 0 | 0.0 | 0.0 | 0.00 | 0.38 | 0.33 | 96 | 1000.2 |
| 20260905190145 | 11 | 0 | 0.0 | 1.6 | 0.00 | 0.41 | 0.33 | 93 | 1000.0 |
| 20260905184450 | 11 | 0 | 0.0 | 0.0 | 0.00 | 0.41 | 0.33 | 91 | 999.9 |
| 20260905182510 | 12 | 0 | 0.0 | 0.0 | 0.00 | 0.41 | 0.33 | 89 | 999.6 |
| 20260905180810 | 12 | 10 | 1.6 | 1.6 | 0.00 | 0.43 | 0.33 | 85 | 999.7 |
| 20260905174840 | 13 | 0 | 0.0 | 1.6 | 0.00 | 0.43 | 0.33 | 83 | 999.6 |
| 20260905173000 | 13 | 0 | 0.0 | 1.6 | 0.00 | 0.43 | 0.33 | 80 | 999.1 |
| 20260905171402 | 14 | 109 | 1.6 | 1.6 | 0.00 | 0.46 | 0.33 | 80 | 998.9 |
| 20260905165755 | 15 | 0 | 0.0 | 1.6 | 0.00 | 0.46 | 0.33 | 76 | 998.6 |
| 20260905164055 | 15 | 0 | 0.0 | 1.6 | 0.00 | 0.46 | 0.33 | 71 | 998.4 |
| 20260905162325 | 15 | 269 | 1.6 | 3.2 | 0.00 | 0.48 | 0.33 | 70 | 998.3 |
| 20260905160655 | 15 | 0 | 0.0 | 0.0 | 0.00 | 0.48 | 0.33 | 75 | 998.1 |
| 20260905154822 | 15 | 0 | 0.0 | 0.0 | 0.00 | 0.51 | 0.33 | 74 | 998.2 |
| 20260905154818 | 15 | 0 | 0.0 | 0.0 | 0.00 | 0.51 | 0.33 | 74 | 998.2 |
| 20260905153050 | 15 | 0 | 0.0 | 0.0 | 0.00 | 0.51 | 0.33 | 73 | 997.7 |
| 20260905151410 | 15 | 57 | 1.6 | 1.6 | 0.00 | 0.51 | 0.33 | 78 | 997.7 |
| 20260905145640 | 15 | 0 | 0.0 | 1.6 | 0.00 | 0.51 | 0.33 | 71 | 997.4 |
| 20260905143735 | 15 | 0 | 0.0 | 0.0 | 0.00 | 0.53 | 0.33 | 72 | 997.2 |
| 20260905141920 | 15 | 0 | 0.0 | 0.0 | 0.00 | 0.53 | 0.33 | 74 | 997.2 |
| 20260905140246 | 15 | 0 | 0.0 | 0.0 | 0.00 | 0.53 | 0.33 | 70 | 997.3 |
| 20260905134420 | 15 | 0 | 0.0 | 0.0 | 0.00 | 0.56 | 0.33 | 67 | 996.9 |
| 20260905132535 | 16 | 184 | 3.2 | 3.2 | 0.00 | 0.56 | 0.33 | 64 | 996.8 |
| 20260905130900 | 17 | 247 | 1.6 | 4.8 | 0.00 | 0.56 | 0.33 | 54 | 996.6 |
| 20260905130855 | 17 | 247 | 1.6 | 4.8 | 0.00 | 0.56 | 0.33 | 54 | 996.6 |
| 20260905125235 | -17 | 279 | 1.6 | 4.8 | 0.00 | 0.58 | 0.33 | 53 | 996.7 |
| 20260905125230 | 16 | 279 | 1.6 | 4.8 | 0.00 | 0.58 | 0.33 | 53 | 996.7 |
| 20260905123619 | 15 | 245 | 3.2 | 3.2 | 0.00 | 0.58 | 0.33 | 63 | 996.4 |
| 20260905121955 | 15 | 0 | 0.0 | 1.6 | 0.00 | 0.61 | 0.33 | 65 | 996.4 |
| 20260905120230 | 16 | 345 | 3.2 | 4.8 | 0.00 | 0.61 | 0.33 | 62 | 996.2 |
| 20260905114307 | 15 | 0 | 0.0 | 1.6 | 0.00 | 0.61 | 0.33 | 71 | 996.2 |
| 20260905112538 | 15 | 0 | 0.0 | 1.6 | 0.00 | 0.64 | 0.33 | 67 | 996.5 |
| 20260905110930 | 16 | 254 | 3.2 | 4.8 | 0.00 | 0.89 | 0.33 | 63 | 996.3 |
| 20260905105059 | 15 | 0 | 0.0 | 1.6 | 0.00 | 0.94 | 0.33 | 62 | 996.1 |
| 20260905103411 | 15 | 313 | 3.2 | 3.2 | 0.00 | 0.94 | 0.33 | 67 | 995.9 |
| 20260905101750 | 16 | 320 | 1.6 | 3.2 | 0.00 | 0.94 | 0.33 | 63 | 995.7 |
| 20260905095840 | 15 | 288 | 1.6 | 1.6 | 0.00 | 0.94 | 0.33 | 61 | 995.5 |
| 20260905094020 | 15 | 247 | 1.6 | 1.6 | 0.00 | 0.94 | 0.33 | 66 | 995.4 |
| 20260905092238 | 15 | 312 | 3.2 | 3.2 | 0.00 | 0.94 | 0.00 | 68 | 995.4 |
| 20260905092233 | 15 | 312 | 3.2 | 3.2 | 0.00 | 0.94 | 0.33 | 68 | 995.4 |
| 20260905090514 | 15 | 3 | 1.6 | 1.6 | 0.03 | 0.94 | 0.33 | 69 | 995.4 |
| 20260905084550 | 13 | 71 | 3.2 | 3.2 | 0.03 | 0.94 | 0.33 | 77 | 995.2 |
| 20260905084545 | 13 | 71 | 3.2 | 3.2 | 0.03 | 0.94 | 0.33 | 77 | 995.2 |
| 20260905082548 | 12 | 0 | 0.0 | 1.6 | 0.03 | 0.94 | 0.30 | 85 | 995.3 |
| 20260905080551 | 11 | 180 | 1.6 | 3.2 | 0.03 | 0.91 | 0.30 | 99 | 995.3 |
| 20260905074620 | 10 | 0 | 0.0 | 1.6 | 0.00 | 0.91 | 0.30 | 98 | 995.2 |
| 20260905072820 | 8 | 0 | 0.0 | 1.6 | 0.00 | 0.91 | 0.30 | 99 | 995.1 |
| 20260905070845 | 8 | 0 | 0.0 | 1.6 | 0.00 | 0.91 | 0.28 | 99 | 995.1 |
| 20260905064854 | 7 | 0 | 0.0 | 0.0 | 0.03 | 0.94 | 2.51 | ||
| 20260905064850 | 7 | 0 | 0.0 | 0.0 | 0.03 | 0.94 | 0.28 | 99 | 995.2 |
| 20260905063005 | 7 | 0 | 0.0 | 0.0 | 0.03 | 0.94 | 0.28 | 99 | 994.9 |
| 20260905061009 | 6 | 0 | 0.0 | 1.6 | 0.03 | 0.94 | 0.25 | 99 | 994.9 |
| 20260905055045 | 6 | 0 | 0.0 | 3.2 | 0.03 | 0.91 | 0.25 | 99 | 995.0 |
| 20260905053405 | 6 | 0 | 0.0 | 0.0 | 0.03 | 0.91 | 0.23 | 99 | 994.7 |